Meath Environmental Platform

Observations for Trim Market St

Time AQI Temp °C Hum % Pres Pa CO μg/m³ H₂S μg/m³ NO μg/m³ NO₂ μg/m³ O₃ μg/m³ SO₂ μg/m³ PM1 μg/m³ PM2.5 μg/m³ PM10 μg/m³
Thursday 16 July 2026
18:36 2 29.5 37 65,780 0 14.32 0 13.76 35.98 0 8.55 15.24 20.65
18:35 2 29.5 37 65,799 0 14.18 0 13.07 34.58 0 9.26 15.25 20.66
18:28 2 29.7 37 65,858 0 15.08 0 12.97 33.01 0 7.84 12.62 19.06
18:22 2 29.9 37 65,862 0 18.64 0 13.93 31.64 0 7.84 12.09 15.77
18:21 2 29.9 37 65,868 0 19.71 0 13.82 31.76 0 7.84 14.22 22.36
18:20 2 29.9 37 65,878 0 25.15 0 16.53 34.39 0 9.26 16.89 24.84
18:19 2 30 36 65,896 0 25.49 0 17.42 37.1 0 7.84 14.24 19.09
18:18 2 30 36 65,916 0 23.08 0 16.15 31.25 0 8.55 16.39 22.41
18:17 2 30 36 65,935 0 28.66 0 21.46 29.88 0 6.41 13.19 19.94
18:16 2 30.1 36 65,966 0 26.11 0 26.67 20.55 0 7.13 13.75 19.97
18:15 2 30.1 36 65,974 0 22.84 0 31.99 8.48 0 6.41 12.69 18.32
18:14 2 30.1 36 65,979 0 22.33 0 20.79 26.2 0 9.26 16.97 24.14
18:13 2 30.2 36 65,987 0 20.93 0 18.07 23.2 0 8.55 14.3 19.99
18:12 2 30.3 36 65,999 0 23.98 0 17.96 29.9 0 7.84 13.78 22.5
18:11 2 30.3 35 66,011 0 25.03 0 18.67 31.23 0 7.13 13.78 20.84
18:10 2 30.4 35 66,025 0 23.84 0 15.75 35.46 0 7.84 15.93 22.52
18:09 2 30.5 35 66,017 0 24.32 0 16.94 34.12 0 9.26 14.33 19.19
18:07 2 30.6 35 66,035 0 23.7 0 15.84 33.62 0 7.84 14.36 20.89
18:06 2 30.7 35 66,056 0 24.96 0 16.82 27.17 0 8.55 16.5 25.07
18:05 2 30.7 35 66,084 0 27.34 0 16.91 36.02 0 8.55 15.96 21.72